STARLINK-34604

Last updated on Sat Aug 16 2025 00:02:05 GMT+0000 (Coordinated Universal Time)

1 64801U 25150M 25227.58336806 .00056539 00000+0 12856-2 0 9990 2 64801 70.0000 315.4027 0003232 277.1511 54.6043 15.42698724 6088
UTC large
Height (km)
Speed (km/s)
/
Latitude / Longitude
Inclination (degrees)
Orbital Period (minutes)
Azimuth
Elevation
Range (km)
Doppler Factor

Next 0 passes for location: London (51.5072 / 0.1276)

Sorry there are no passes over London.